Terminal Aerodrome Forecast
Issued by NWS Lake Charles, LA

Home | Current Version | Previous Version | Text Only | Print | Product List | Glossary On
Versions: 1 2 3 4 5 6 7 8 9 10 11 12 13 14 15 16 17 18 19 20
000
FTUS44 KLCH 272300
TAFBPT
TAF
KBPT 272320Z 2800/2824 09009KT P6SM SCT025 SCT100
      TEMPO 2810/2814 OVC025
     FM281400 09014G22KT P6SM SCT035 BKN050=

USA.gov is the U.S. government's official web portal to all federal, state and local government web resources and services.